This is the latest recevied weather packets stored in our database for station/object W5ITZ. If no packets are shown the sender has not sent any weather packets the latest 10 day(s).
| Time | Temp. | Humidity | Pressure | Rain* | Wind** | Luminosity | Snow |
|---|---|---|---|---|---|---|---|
| 1777947096 | 21.67° C | 83% | 1011.2 hPa | 0 mm | - | 0 W/m² | - |
| 1777946792 | 21.67° C | 83% | 1011.1 hPa | 0 mm | - | 0 W/m² | - |
| 1777946488 | 22.22° C | 82% | 1011.1 hPa | 0 mm | - | 0 W/m² | - |
| 1777946186 | 22.22° C | 81% | 1011.2 hPa | 0 mm | - | 0 W/m² | - |
| 1777945882 | 22.22° C | 81% | 1010.9 hPa | 0 mm | - | 0 W/m² | - |
| 1777945579 | 22.78° C | 80% | 1010.9 hPa | 0 mm | - | 0 W/m² | - |
| 1777945276 | 22.78° C | 79% | 1010.8 hPa | 0 mm | - | 0 W/m² | - |
| 1777944973 | 22.78° C | 78% | 1010.8 hPa | 0 mm | - | 0 W/m² | - |
| 1777944670 | 23.33° C | 78% | 1010.6 hPa | 0 mm | - | 0 W/m² | - |
| 1777944369 | 23.33° C | 77% | 1010.8 hPa | 0 mm | - | 0 W/m² | - |
| 1777944065 | 23.33° C | 77% | 1010.8 hPa | 0 mm | - | 0 W/m² | - |
| 1777943760 | 23.33° C | 77% | 1010.6 hPa | 0 mm | - | 0 W/m² | - |
| 1777943458 | 23.33° C | 77% | 1010.6 hPa | 0 mm | - | 1 W/m² | - |
| 1777943153 | 23.33° C | 76% | 1010.6 hPa | 0 mm | - | 2 W/m² | - |
| 1777942850 | 23.33° C | 76% | 1010.6 hPa | 0 mm | - | 3 W/m² | - |
| 1777942546 | 23.89° C | 76% | 1010.3 hPa | 0 mm | - | 6 W/m² | - |
| 1777942244 | 23.89° C | 76% | 1010.4 hPa | 0 mm | - | 10 W/m² | - |
| 1777941941 | 23.89° C | 76% | 1010.7 hPa | 0 mm | - | 15 W/m² | - |
| 1777941638 | 23.89° C | 75% | 1010.4 hPa | 0 mm | - | 19 W/m² | - |
| 1777941335 | 23.89° C | 75% | 1010.5 hPa | 0 mm | - | 27 W/m² | - |
| 1777941032 | 23.89° C | 75% | 1010.8 hPa | 0 mm | - | 34 W/m² | - |
| 1777940732 | 23.89° C | 75% | 1010.5 hPa | 0 mm | - | 42 W/m² | - |
| 1777940432 | 23.89° C | 75% | 1010.8 hPa | 0 mm | - | 50 W/m² | - |
| 1777940129 | 23.89° C | 74% | 1010.7 hPa | 0 mm | - | 57 W/m² | - |
| 1777939826 | 23.89° C | 74% | 1010.9 hPa | 0 mm | - | 62 W/m² | - |
* Rain latest hour (hover to see other rain measurements)
** Current wind speed in m/s (hover to see current wind gust speed)